Location: Absher
(46.5583°N, 107.9840°W)
Time: 18:16:08
(UTC+00:00)

Envisat - Pass Details

Date: 09 December 2022
Orbit: 763 x 765 km, 98.2° (Epoch: 06 February)

Event Time Altitude Azimuth Distance (km) Brightness Sun altitude
Rises 12:16:02 0° 7° (N) 3,245 6.2 -24.5°
Reaches altitude 10° 12:18:27 10° 360° (N) 2,314 5.4 -24.1°
Enters shadow 12:19:26 15° 355° (N) 1,966 5.0 -23.9°
